Change the Weather History Date:

Tuesday, February 5, 2013

  Actual Average Record
Temperature  
Mean Temperature 35 °F 22 °F  
Max Temperature 44 °F 32 °F 60 °F (2009)
Min Temperature 25 °F 12 °F -18 °F (2014)
Degree Days  
Heating Degree Days 30 43  
Month to date heating degree days 160 218  
Since 1 July heating degree days 4493 4857  
Cooling Degree Days 0 0  
Month to date cooling degree days 0 0  
Year to date cooling degree days 0 0  
Moisture  
Dew Point 24 °F    
Average Humidity 67    
Maximum Humidity 88    
Minimum Humidity 45    
Precipitation  
Precipitation 0.00 in 0.01 in 0.11 in (2007)
Month to date precipitation 0.01 0.05  
Year to date precipitation 0.11 0.34  
Sea Level Pressure  
Sea Level Pressure 29.86 in    
Wind  
Wind Speed 9 mph (WSW)    
Max Wind Speed 24 mph    
Max Gust Speed 30 mph    
T = Trace of Precipitation, MM = Missing Value Source: NWS Daily Summary

Daily Weather History Graph

Daily Weather History Graph

Search for Another Location

Airport or City:

Trip Planner

Search our weather history database for the weather conditions in past years. The results will help you decide how hot, cold, wet, or windy it might be!

Date:

Astronomy

Feb. 05, 2013 Rise Set
Actual Time 7:10 AM MST 5:07 PM MST
Civil Twilight 6:38 AM MST 5:38 PM MST
Nautical Twilight 6:03 AM MST 6:13 PM MST
Astronomical Twilight 5:28 AM MST 6:48 PM MST
Moon 3:00 AM MST (2/5) 12:20 PM MST (2/5)
Length of Visible Light 10h 59m
Length of Day
9h 56m
Waning Crescent, 26% of the Moon is Illuminated
Feb 5
Waning Crescent
Feb 10
New
Feb 17
First Quarter
Feb 25
Full
Mar 4
Last Quarter

Hourly Weather History & Observations

Time (MST) Temp. Windchill Dew Point Humidity Pressure Visibility Wind Dir Wind Speed Gust Speed Precip Events Conditions
12:56 AM 32.0 °F 22.5 °F 26.1 °F 79% 29.81 in - WNW 12.7 mph - N/A   Unknown
1:56 AM 28.9 °F 18.2 °F 25.0 °F 85% 29.86 in - WNW 13.8 mph - N/A   Unknown
2:56 AM 28.0 °F 17.5 °F 24.1 °F 85% 29.86 in - WNW 12.7 mph - N/A   Unknown
3:56 AM 28.0 °F 17.0 °F 23.0 °F 81% 29.87 in - WNW 13.8 mph - N/A   Unknown
4:56 AM 28.0 °F 17.0 °F 21.9 °F 78% 29.89 in - NW 13.8 mph - N/A   Unknown
5:35 AM 26.1 °F 16.2 °F 21.0 °F 81% 29.84 in - West 10.4 mph - N/A   Unknown
5:56 AM 25.0 °F 14.8 °F 21.0 °F 85% 29.93 in - West 10.4 mph - N/A   Unknown
6:56 AM 28.0 °F 17.5 °F 21.9 °F 78% 29.94 in - WNW 12.7 mph - N/A   Unknown
7:56 AM 28.9 °F 19.2 °F 23.0 °F 78% 29.95 in - WNW 11.5 mph - N/A   Unknown
8:56 AM 32.0 °F 24.8 °F 24.1 °F 73% 29.96 in - NW 8.1 mph - N/A   Unknown
9:56 AM 33.1 °F 24.9 °F 23.0 °F 66% 29.96 in - NW 10.4 mph - N/A   Unknown
10:56 AM 35.1 °F 27.9 °F 23.0 °F 61% 29.95 in - WNW 9.2 mph - N/A   Unknown
11:56 AM 37.0 °F 34.5 °F 23.0 °F 57% 29.94 in - WNW 3.5 mph - N/A   Unknown
12:56 PM 39.0 °F - 23.0 °F 53% 29.90 in - Calm Calm - N/A   Unknown
1:56 PM 39.9 °F 37.8 °F 23.0 °F 51% 29.88 in - SSE 3.5 mph - N/A   Unknown
2:56 PM 44.1 °F 40.8 °F 24.1 °F 45% 29.86 in - ESE 5.8 mph - N/A   Unknown
3:56 PM 43.0 °F 37.7 °F 24.1 °F 47% 29.83 in - ESE 9.2 mph - N/A   Unknown
4:56 PM 39.0 °F 32.3 °F 24.1 °F 55% 29.84 in - South 10.4 mph - N/A   Unknown
5:56 PM 37.0 °F 28.9 °F 25.0 °F 62% 29.82 in - SSE 12.7 mph - N/A   Unknown
6:56 PM 34.0 °F 25.5 °F 24.1 °F 67% 29.82 in - SSE 11.5 mph - N/A   Unknown
7:56 PM 34.0 °F 28.0 °F 25.0 °F 70% 29.81 in - South 6.9 mph - N/A   Unknown
8:56 PM 33.1 °F 24.9 °F 24.1 °F 70% 29.78 in - South 10.4 mph - N/A   Unknown
9:56 PM 30.9 °F 23.5 °F 24.1 °F 76% 29.77 in - South 8.1 mph - N/A   Unknown
10:56 PM 30.0 °F 23.2 °F 24.1 °F 79% 29.75 in - SSE 6.9 mph - N/A   Unknown
11:56 PM 30.9 °F 24.3 °F 25.0 °F 79% 29.74 in - South 6.9 mph - N/A   Unknown